Cartersville, GA

6:05 PM EST on November 22, 2019 (GMT -0500)
Cartersville

Weather History for KVPC - September, 2019

Change the Weather History Date:

Tuesday, September 24, 2019

  Actual Average Record
Temperature  
Mean Temperature 80 °F 68 °F  
Max Temperature 93 °F 80 °F 93 °F (2007)
Min Temperature 65 °F 57 °F 41 °F (2012)
Degree Days  
Heating Degree Days 0 1  
Month to date heating degree days 0 6  
Since 1 July heating degree days 0 6  
Cooling Degree Days 14 4  
Month to date cooling degree days 360 187  
Year to date cooling degree days 1932 1452  
Growing Degree Days 30 (Base 50)    
Moisture  
Dew Point 62 °F    
Average Humidity 57    
Maximum Humidity 84    
Minimum Humidity 31    
Precipitation  
Precipitation 0.00 in 0.14 in 1.67 in (2018)
Month to date precipitation 0.01 2.84  
Year to date precipitation 31.55 37.43  
Sea Level Pressure  
Sea Level Pressure 29.90 in    
Wind  
Wind Speed 1 mph ()    
Max Wind Speed 9 mph    
Max Gust Speed 13 mph    
Visibility 9.8 miles    
Events      
T = Trace of Precipitation, MM = Missing Value Source: Averaged Metar Reports

Daily Weather History Graph

Daily Weather History Graph

Search for Another Location

Airport or City:

Astronomy

Sep. 24, 2019 Rise Set
Actual Time 7:28 AM EDT 7:33 PM EDT
Civil Twilight 7:03 AM EDT 7:58 PM EDT
Nautical Twilight 6:34 AM EDT 8:27 PM EDT
Astronomical Twilight 6:05 AM EDT 8:57 PM EDT
Moon 2:29 AM EDT (9/24) 5:03 PM EDT (9/24)
Length of Visible Light 12h 54m
Length of Day
12h 04m
Waning Crescent, 23% of the Moon is Illuminated
Sep 24
Waning Crescent
Sep 28
New
Oct 5
First Quarter
Oct 13
Full
Oct 21
Last Quarter

Hourly Weather History & Observations

Time (EDT) Temp. Heat Index Dew Point Humidity Pressure Visibility Wind Dir Wind Speed Gust Speed Precip Events Conditions
12:53 AM 77.0 °F - 64.0 °F 64% 29.95 in 10.0 mi Calm Calm - N/A   Overcast
1:53 AM 77.0 °F - 64.9 °F 66% 29.94 in 10.0 mi Calm Calm - N/A   Overcast
2:53 AM 73.0 °F - 64.0 °F 73% 29.93 in 10.0 mi Calm Calm - N/A   Clear
3:53 AM 73.0 °F - 64.0 °F 73% 29.92 in 10.0 mi Calm Calm - N/A   Mostly Cloudy
4:53 AM 72.0 °F - 64.0 °F 76% 29.91 in 10.0 mi Calm Calm - N/A   Partly Cloudy
5:53 AM 70.0 °F - 64.0 °F 81% 29.92 in 10.0 mi Calm Calm - N/A   Clear
6:53 AM 69.1 °F - 64.0 °F 84% 29.93 in 4.0 mi Calm Calm - N/A   Haze
7:53 AM 70.0 °F - 64.0 °F 81% 29.95 in 10.0 mi Calm Calm - N/A   Clear
8:53 AM 75.0 °F - 66.0 °F 73% 29.96 in 10.0 mi Calm Calm - N/A   Clear
9:53 AM 80.1 °F 82.7 °F 68.0 °F 67% 29.96 in 10.0 mi North 3.5 mph - N/A   Clear
10:53 AM 82.9 °F 85.8 °F 68.0 °F 60% 29.96 in 10.0 mi NE 3.5 mph - N/A   Clear
11:53 AM 87.1 °F 90.6 °F 68.0 °F 53% 29.94 in 10.0 mi Calm Calm - N/A   Scattered Clouds
12:53 PM 90.0 °F 90.6 °F 63.0 °F 40% 29.92 in 10.0 mi Variable 5.8 mph - N/A   Partly Cloudy
1:53 PM 89.1 °F 89.0 °F 61.0 °F 39% 29.90 in 10.0 mi Variable 4.6 mph - N/A   Clear
2:53 PM 89.1 °F 89.0 °F 61.0 °F 39% 29.86 in 10.0 mi Variable 4.6 mph - N/A   Partly Cloudy
3:53 PM 91.9 °F 91.2 °F 59.0 °F 33% 29.85 in 10.0 mi Variable 3.5 mph - N/A   Partly Cloudy
4:53 PM 93.9 °F 93.2 °F 59.0 °F 31% 29.84 in 10.0 mi Variable 5.8 mph - N/A   Partly Cloudy
5:53 PM 91.0 °F 90.0 °F 57.9 °F 33% 29.84 in 10.0 mi NNW 8.1 mph - N/A   Scattered Clouds
6:53 PM 88.0 °F 86.7 °F 57.0 °F 35% 29.84 in 10.0 mi NW 4.6 mph - N/A   Clear
7:53 PM 81.0 °F 81.3 °F 59.0 °F 47% 29.85 in 10.0 mi Calm Calm - N/A   Clear
8:53 PM 75.0 °F - 57.0 °F 53% 29.86 in 10.0 mi SW 3.5 mph - N/A   Clear
9:53 PM 75.0 °F - 53.1 °F 46% 29.87 in 10.0 mi SW 3.5 mph - N/A   Clear
10:53 PM 72.0 °F - 53.1 °F 51% 29.87 in 10.0 mi Calm Calm - N/A   Clear
11:53 PM 68.0 °F - 53.1 °F 59% 29.87 in 10.0 mi Calm Calm - N/A   Clear